Location: Namasale
(1.5000°N, 32.6167°E)
Time: 13:26:30
(UTC+00:00)

Meteor 1-24 Rocket - Pass Details

Date: 09 April 2020
Orbit: 790 x 927 km, 81.3° (Epoch: 04 June)

Event Time Altitude Azimuth Distance (km) Brightness Sun altitude
Rises 16:10:49 0° 358° (N) 3,272 6.9 -4.7°
Reaches altitude 10° 16:13:11 10° 0° (N) 2,344 6.1 -5.3°
Maximum altitude 16:18:26 74° 85° (E) 827 3.5 -6.6°
Drops below altitude 10° 16:23:47 10° 170° (S) 2,386 5.9 -7.9°
Sets 16:26:12 0° 171° (S) 3,334 6.6 -8.5°
